| time (UTC) | temp F | wind direction | speed knots | gust knots | rain 1hr in | rain 24hr in | rain mn in | humidity % | barometer mb |
| 20260505041512 | 64 | 239 | 4.3 | 12.2 | 0.00 | 0.00 | 0.00 | 69 | 1002.6 |
| 20260505040011 | 62 | 261 | 3.5 | 7.8 | 0.00 | 0.00 | 0.00 | 71 | 1002.6 |
| 20260505034508 | 61 | 179 | 0.9 | 4.3 | 0.00 | 0.00 | 0.00 | 70 | 1002.4 |
| 20260505033006 | 61 | 172 | 0.9 | 5.2 | 0.00 | 0.00 | 0.00 | 69 | 1002.6 |
| 20260505031504 | 61 | 185 | 0.0 | 8.7 | 0.00 | 0.00 | 0.00 | 69 | 1002.8 |
| 20260505030004 | 61 | 186 | 0.9 | 6.1 | 0.00 | 0.00 | 0.00 | 69 | 1003.0 |
| 20260505024503 | 61 | 196 | 1.7 | 7.8 | 0.00 | 0.00 | 0.00 | 68 | 1003.3 |
| 20260505023003 | 61 | 170 | 0.9 | 4.3 | 0.00 | 0.00 | 0.00 | 64 | 1003.2 |
| 20260505021502 | 59 | 184 | 4.3 | 10.4 | 0.00 | 0.00 | 0.00 | 63 | 1003.2 |
| 20260505020003 | 60 | 161 | 0.9 | 5.2 | 0.00 | 0.00 | 0.00 | 59 | 1003.2 |
| 20260505014503 | 61 | 178 | 0.0 | 5.2 | 0.00 | 0.00 | 0.00 | 58 | 1003.0 |
| 20260505013002 | 62 | 161 | 2.6 | 5.2 | 0.00 | 0.00 | 0.00 | 54 | 1002.9 |
| 20260505011500 | 63 | 186 | 0.0 | 4.3 | 0.00 | 0.00 | 0.00 | 51 | 1003.0 |
| 20260505010104 | 64 | 167 | 0.0 | 4.3 | 0.00 | 0.00 | 0.00 | 49 | 1002.9 |
| 20260505010002 | 64 | 167 | 0.0 | 4.3 | 0.00 | 0.00 | 0.00 | 49 | 1002.9 |
| 20260505004600 | 65 | 214 | 0.9 | 2.6 | 0.00 | 0.00 | 0.00 | 48 | 1002.9 |
| 20260505003108 | 67 | 225 | 0.9 | 6.1 | 0.00 | 0.00 | 0.00 | 45 | 1002.7 |
| 20260505003001 | 67 | 225 | 0.9 | 6.1 | 0.00 | 0.00 | 0.00 | 44 | 1002.9 |
| 20260505001602 | 67 | 237 | 0.9 | 7.8 | 0.00 | 0.00 | 0.00 | 44 | 1002.9 |
| 20260505001502 | 67 | 237 | 1.7 | 7.8 | 0.00 | 0.00 | 0.00 | 44 | 1002.9 |
| 20260504234558 | 69 | 242 | 2.6 | 9.6 | 0.00 | 0.00 | 0.00 | 43 | 1003.0 |
| 20260504233059 | 69 | 257 | 1.7 | 7.8 | 0.00 | 0.00 | 0.00 | 45 | 1002.8 |
| 20260504231556 | 70 | 207 | 4.3 | 11.3 | 0.00 | 0.00 | 0.00 | 45 | 1003.1 |
| 20260504230055 | 70 | 232 | 3.5 | 13.0 | 0.00 | 0.00 | 0.00 | 46 | 1003.1 |
| 20260504224553 | 70 | 246 | 3.5 | 9.6 | 0.00 | 0.00 | 0.00 | 47 | 1003.1 |
| 20260504223110 | 70 | 284 | 3.5 | 15.6 | 0.00 | 0.00 | 0.00 | 44 | 1003.2 |
| 20260504221553 | 71 | 210 | 6.1 | 11.3 | 0.00 | 0.00 | 0.00 | 40 | 1003.2 |
| 20260504220053 | 71 | 248 | 3.5 | 10.4 | 0.00 | 0.00 | 0.00 | 39 | 1003.1 |
| 20260504214551 | 71 | 247 | 7.8 | 16.5 | 0.00 | 0.00 | 0.00 | 38 | 1003.2 |
| 20260504213050 | 72 | 319 | 6.1 | 17.4 | 0.00 | 0.00 | 0.00 | 40 | 1003.1 |
| 20260504211633 | 71 | 297 | 4.3 | 12.2 | 0.00 | 0.00 | 0.00 | 42 | 1003.2 |
| 20260504210051 | 72 | 193 | 2.6 | 16.5 | 0.00 | 0.00 | 0.00 | 44 | 1003.3 |
| 20260504204545 | 71 | 256 | 7.0 | 13.0 | 0.00 | 0.00 | 0.00 | 43 | 1003.6 |
| 20260504203044 | 71 | 229 | 5.2 | 14.8 | 0.00 | 0.00 | 0.00 | 43 | 1003.6 |
| 20260504201543 | 72 | 173 | 5.2 | 18.2 | 0.00 | 0.00 | 0.00 | 42 | 1003.6 |
| 20260504200043 | 72 | 249 | 4.3 | 14.8 | 0.00 | 0.00 | 0.00 | 44 | 1003.6 |
| 20260504194547 | 71 | 283 | 4.3 | 13.0 | 0.00 | 0.00 | 0.00 | 46 | 1004.0 |
| 20260504193038 | 71 | 227 | 7.8 | 18.2 | 0.00 | 0.00 | 0.00 | 45 | 1004.3 |
| 20260504191537 | 71 | 198 | 4.3 | 17.4 | 0.00 | 0.00 | 0.00 | 49 | 1004.5 |
| 20260504190032 | 69 | 242 | 6.1 | 18.2 | 0.00 | 0.00 | 0.00 | 49 | 1004.8 |
| 20260504184543 | 69 | 246 | 7.0 | 16.5 | 0.00 | 0.00 | 0.00 | 51 | 1005.0 |
| 20260504183028 | 68 | 235 | 6.1 | 20.9 | 0.00 | 0.00 | 0.00 | 52 | 1005.0 |
| 20260504181526 | 68 | 234 | 6.1 | 13.0 | 0.00 | 0.00 | 0.00 | 53 | 1005.1 |
| 20260504180024 | 67 | 249 | 6.1 | 17.4 | 0.00 | 0.00 | 0.00 | 54 | 1005.5 |
| 20260504174520 | 67 | 277 | 8.7 | 19.1 | 0.00 | 0.00 | 0.00 | 55 | 1005.8 |
| 20260504173016 | 66 | 247 | 5.2 | 12.2 | 0.00 | 0.00 | 0.00 | 57 | 1005.9 |
| 20260504171513 | 64 | 198 | 7.8 | 20.0 | 0.00 | 0.00 | 0.00 | 55 | 1006.1 |
| 20260504081540 | 49 | 248 | 1.7 | 7.8 | 0.00 | 0.00 | 0.00 | 69 | 1008.1 |
| 20260504050021 | 51 | 243 | 5.2 | 13.9 | 0.00 | 0.00 | 0.00 | 69 | 1009.5 |
| 20260504044514 | 51 | 238 | 2.6 | 7.0 | 0.00 | 0.00 | 0.00 | 65 | 1009.8 |
| 20260504043010 | 52 | 277 | 3.5 | 8.7 | 0.00 | 0.00 | 0.00 | 62 | 1009.8 |